| time (UTC) | temp F | wind direction | speed MPH | gust MPH | rain 1hr in | rain 24hr in | rain mn in | humidity % | barometer mb |
| 20260504100113 | 43 | 174 | 0.0 | 1.0 | 0.00 | 0.00 | 0.00 | 64 | 1009.9 |
| 20260504080413 | 45 | 207 | 3.0 | 7.0 | 0.00 | 0.00 | 0.00 | 61 | 1010.2 |
| 20260504070113 | 46 | 219 | 2.0 | 10.0 | 0.00 | 0.00 | 0.00 | 58 | 1010.0 |
| 20260504050414 | 47 | 226 | 4.0 | 8.0 | 0.00 | 0.00 | 0.00 | 56 | 1010.0 |
| 20260504045513 | 47 | 223 | 4.0 | 9.0 | 0.00 | 0.00 | 0.00 | 55 | 1010.1 |
| 20260504043713 | 47 | 216 | 2.0 | 7.0 | 0.00 | 0.00 | 0.00 | 56 | 1010.1 |
| 20260504042813 | 46 | 220 | 2.0 | 5.0 | 0.00 | 0.00 | 0.00 | 57 | 1010.0 |
| 20260504041013 | 45 | 0 | 0.0 | 1.0 | 0.00 | 0.00 | 0.00 | 60 | 1010.0 |
| 20260504040113 | 45 | 0 | 0.0 | 1.0 | 0.00 | 0.00 | 0.00 | 60 | 1010.1 |
| 20260504035213 | 45 | 0 | 0.0 | 1.0 | 0.00 | 0.00 | 0.00 | 59 | 1010.1 |
| 20260504034313 | 45 | 0 | 0.0 | 0.0 | 0.00 | 0.00 | 0.00 | 59 | 1010.1 |
| 20260504033413 | 45 | 0 | 0.0 | 1.0 | 0.00 | 0.00 | 0.00 | 59 | 1010.0 |
| 20260504032513 | 46 | 0 | 0.0 | 1.0 | 0.00 | 0.00 | 0.00 | 60 | 1010.2 |
| 20260504031613 | 46 | 0 | 0.0 | 1.0 | 0.00 | 0.00 | 0.00 | 59 | 1010.2 |
| 20260504030713 | 46 | 0 | 0.0 | 0.0 | 0.00 | 0.00 | 0.00 | 59 | 1010.2 |
| 20260504025813 | 46 | 0 | 0.0 | 0.0 | 0.00 | 0.00 | 0.00 | 59 | 1010.1 |
| 20260504024913 | 47 | 0 | 0.0 | 1.0 | 0.00 | 0.00 | 0.00 | 58 | 1010.1 |
| 20260504024013 | 47 | 0 | 0.0 | 0.0 | 0.00 | 0.00 | 0.00 | 57 | 1010.2 |
| 20260504023113 | 47 | 0 | 0.0 | 0.0 | 0.00 | 0.00 | 0.00 | 57 | 1010.3 |
| 20260504022213 | 47 | 0 | 0.0 | 1.0 | 0.00 | 0.00 | 0.00 | 57 | 1010.3 |
| 20260504020413 | 47 | 0 | 0.0 | 0.0 | 0.00 | 0.00 | 0.00 | 57 | 1010.3 |
| 20260504015513 | 47 | 0 | 0.0 | 0.0 | 0.00 | 0.00 | 0.00 | 56 | 1010.2 |
| 20260504014613 | 48 | 0 | 0.0 | 0.0 | 0.00 | 0.00 | 0.00 | 56 | 1010.1 |
| 20260504012813 | 48 | 0 | 0.0 | 0.0 | 0.00 | 0.00 | 0.00 | 55 | 1010.1 |
| 20260504011913 | 49 | 0 | 0.0 | 1.0 | 0.00 | 0.00 | 0.00 | 54 | 1010.1 |
| 20260504011013 | 50 | 253 | 0.0 | 1.0 | 0.00 | 0.00 | 0.00 | 52 | 1010.0 |
| 20260504005213 | 50 | 236 | 2.0 | 7.0 | 0.00 | 0.00 | 0.00 | 51 | 1009.7 |
| 20260504004313 | 50 | 236 | 1.0 | 14.0 | 0.00 | 0.00 | 0.00 | 51 | 1009.7 |
| 20260504003413 | 50 | 224 | 2.0 | 5.0 | 0.00 | 0.00 | 0.00 | 52 | 1009.6 |
| 20260504002513 | 50 | 227 | 1.0 | 5.0 | 0.00 | 0.00 | 0.00 | 52 | 1009.5 |
| 20260504001613 | 49 | 225 | 1.0 | 4.0 | 0.00 | 0.00 | 0.00 | 53 | 1009.3 |
| 20260504000713 | 49 | 0 | 0.0 | 3.0 | 0.00 | 0.00 | 0.00 | 53 | 1009.3 |
| 20260503235813 | 49 | 215 | 1.0 | 3.0 | 0.00 | 0.00 | 0.00 | 53 | 1009.3 |
| 20260503234913 | 50 | 230 | 1.0 | 5.0 | 0.00 | 0.00 | 0.00 | 52 | 1009.1 |
| 20260503234013 | 50 | 223 | 0.0 | 3.0 | 0.00 | 0.00 | 0.00 | 52 | 1009.1 |
| 20260503233113 | 50 | 224 | 0.0 | 3.0 | 0.00 | 0.00 | 0.00 | 52 | 1009.2 |
| 20260503232213 | 50 | 0 | 0.0 | 3.0 | 0.00 | 0.00 | 0.00 | 52 | 1009.2 |
| 20260503231313 | 50 | 0 | 0.0 | 3.0 | 0.00 | 0.00 | 0.00 | 52 | 1009.1 |
| 20260503225513 | 50 | 224 | 1.0 | 5.0 | 0.00 | 0.00 | 0.00 | 51 | 1009.0 |
| 20260503224613 | 51 | 236 | 0.0 | 4.0 | 0.00 | 0.00 | 0.00 | 51 | 1009.2 |
| 20260503223713 | 51 | 248 | 1.0 | 3.0 | 0.00 | 0.00 | 0.00 | 50 | 1009.2 |
| 20260503222813 | 52 | 291 | 1.0 | 6.0 | 0.00 | 0.00 | 0.00 | 49 | 1009.3 |
| 20260503221913 | 53 | 247 | 1.0 | 4.0 | 0.00 | 0.00 | 0.00 | 49 | 1009.3 |
| 20260503221013 | 52 | 297 | 1.0 | 5.0 | 0.00 | 0.00 | 0.00 | 50 | 1009.5 |
| 20260503220113 | 51 | 274 | 2.0 | 5.0 | 0.00 | 0.00 | 0.00 | 51 | 1009.4 |
| 20260503215213 | 51 | 281 | 2.0 | 8.0 | 0.00 | 0.00 | 0.00 | 51 | 1009.4 |
| 20260503214313 | 52 | 305 | 2.0 | 8.0 | 0.00 | 0.00 | 0.00 | 50 | 1009.4 |
| 20260503212513 | 52 | 305 | 2.0 | 8.0 | 0.00 | 0.00 | 0.00 | 51 | 1009.3 |
| 20260503211613 | 52 | 262 | 3.0 | 15.0 | 0.00 | 0.00 | 0.00 | 52 | 1009.4 |
| 20260503205813 | 51 | 312 | 3.0 | 12.0 | 0.00 | 0.00 | 0.00 | 49 | 1009.3 |
| 20260503204013 | 52 | 305 | 4.0 | 12.0 | 0.00 | 0.00 | 0.00 | 48 | 1009.2 |
| 20260503203113 | 52 | 310 | 3.0 | 21.0 | 0.00 | 0.00 | 0.00 | 47 | 1009.2 |
| 20260503202213 | 52 | 310 | 3.0 | 12.0 | 0.00 | 0.00 | 0.00 | 45 | 1009.0 |
| 20260503201313 | 52 | 307 | 4.0 | 16.0 | 0.00 | 0.00 | 0.00 | 44 | 1009.2 |
| 20260503200413 | 52 | 315 | 3.0 | 17.0 | 0.00 | 0.00 | 0.00 | 43 | 1009.1 |
| 20260503195513 | 53 | 266 | 2.0 | 7.0 | 0.00 | 0.00 | 0.00 | 43 | 1009.2 |
| 20260503194613 | 53 | 259 | 2.0 | 9.0 | 0.00 | 0.00 | 0.00 | 45 | 1009.4 |
| 20260503193713 | 53 | 250 | 3.0 | 7.0 | 0.00 | 0.00 | 0.00 | 43 | 1009.6 |
| 20260503192813 | 53 | 238 | 2.0 | 11.0 | 0.00 | 0.00 | 0.00 | 42 | 1009.6 |
| 20260503191913 | 54 | 237 | 2.0 | 7.0 | 0.00 | 0.00 | 0.00 | 45 | 1009.6 |
| 20260503191013 | 53 | 283 | 3.0 | 7.0 | 0.00 | 0.00 | 0.00 | 45 | 1009.7 |
| 20260503190113 | 53 | 298 | 3.0 | 13.0 | 0.00 | 0.00 | 0.00 | 43 | 1009.8 |
| 20260503185213 | 53 | 289 | 3.0 | 12.0 | 0.00 | 0.00 | 0.00 | 47 | 1009.9 |
| 20260503184313 | 52 | 310 | 2.0 | 12.0 | 0.00 | 0.00 | 0.00 | 41 | 1010.0 |
| 20260503183413 | 52 | 291 | 3.0 | 6.0 | 0.00 | 0.00 | 0.00 | 45 | 1010.2 |
| 20260503182513 | 50 | 317 | 3.0 | 10.0 | 0.00 | 0.00 | 0.00 | 45 | 1010.2 |
| 20260503180713 | 51 | 269 | 3.0 | 11.0 | 0.00 | 0.00 | 0.00 | 43 | 1010.4 |
| 20260503175813 | 50 | 289 | 2.0 | 11.0 | 0.00 | 0.00 | 0.00 | 47 | 1010.4 |
| 20260503174913 | 50 | 291 | 3.0 | 11.0 | 0.00 | 0.00 | 0.00 | 48 | 1010.6 |
| 20260503174013 | 50 | 323 | 4.0 | 14.0 | 0.00 | 0.00 | 0.00 | 45 | 1010.7 |
| 20260503173113 | 50 | 282 | 3.0 | 10.0 | 0.00 | 0.00 | 0.00 | 45 | 1010.8 |
| 20260503171313 | 50 | 301 | 2.0 | 13.0 | 0.00 | 0.00 | 0.00 | 45 | 1011.0 |
| 20260503170413 | 50 | 263 | 3.0 | 7.0 | 0.00 | 0.00 | 0.00 | 47 | 1011.1 |
| 20260503160113 | 46 | 295 | 2.0 | 9.0 | 0.00 | 0.00 | 0.00 | 47 | 1011.6 |
| 20260503150713 | 45 | 303 | 3.0 | 14.0 | 0.00 | 0.00 | 0.00 | 51 | 1011.8 |
| 20260503130113 | 40 | 288 | 2.0 | 7.0 | 0.00 | 0.00 | 0.00 | 66 | 1012.0 |
| 20260503110413 | 34 | 0 | 0.0 | 2.0 | 0.00 | 0.00 | 0.00 | 84 | 1011.7 |